TimeEST,TemperatureF,Dew PointF,Humidity,Sea Level PressureIn,VisibilityMPH,Wind Direction,Wind SpeedMPH,Gust SpeedMPH,PrecipitationIn,Events,Conditions,WindDirDegrees,DateUTC
12:55 AM,20.1,9.7,64,29.97,10.0,West,3.5,-,N/A,,Overcast,280,2013-02-05 05:55:00
1:55 AM,20.3,9.9,64,29.96,10.0,NNW,3.5,-,N/A,,Overcast,340,2013-02-05 06:55:00
2:55 AM,20.1,11.5,69,29.96,10.0,Calm,Calm,-,N/A,,Overcast,0,2013-02-05 07:55:00
3:55 AM,20.3,10.2,65,29.95,10.0,Calm,Calm,-,N/A,,Overcast,0,2013-02-05 08:55:00
5:55 AM,19.9,13.3,75,29.97,10.0,NE,3.5,-,N/A,,Overcast,50,2013-02-05 10:55:00
6:55 AM,20.3,12.9,73,29.98,10.0,Calm,Calm,-,N/A,,Overcast,0,2013-02-05 11:55:00
7:55 AM,21.2,12.4,69,30.00,10.0,North,3.5,-,N/A,,Overcast,360,2013-02-05 12:55:00
8:55 AM,22.1,11.8,65,30.01,10.0,Calm,Calm,-,N/A,,Overcast,0,2013-02-05 13:55:00
9:55 AM,24.1,12.0,60,30.02,10.0,NW,3.5,-,N/A,,Overcast,320,2013-02-05 14:55:00
10:55 AM,25.3,11.3,55,30.01,10.0,Calm,Calm,-,N/A,,Overcast,0,2013-02-05 15:55:00
11:55 AM,26.8,10.9,51,29.99,10.0,Calm,Calm,-,N/A,,Clear,0,2013-02-05 16:55:00
12:55 PM,27.9,11.7,51,29.96,10.0,Calm,Calm,-,N/A,,Clear,0,2013-02-05 17:55:00
1:55 PM,28.4,12.2,51,29.96,10.0,South,6.9,-,N/A,,Mostly Cloudy,170,2013-02-05 18:55:00
2:55 PM,28.4,12.2,51,29.95,7.0,SE,4.6,-,N/A,,Mostly Cloudy,140,2013-02-05 19:55:00
3:55 PM,29.3,13.5,52,29.93,10.0,Calm,Calm,-,N/A,,Mostly Cloudy,0,2013-02-05 20:55:00
4:55 PM,28.2,15.6,59,29.91,10.0,South,4.6,-,N/A,,Partly Cloudy,170,2013-02-05 21:55:00
5:55 PM,27.9,16.9,63,29.93,10.0,South,4.6,-,N/A,,Mostly Cloudy,190,2013-02-05 22:55:00
6:55 PM,26.6,19.4,74,29.94,10.0,South,6.9,-,0.00,Snow,Light Snow,180,2013-02-05 23:55:00
7:55 PM,25.5,22.8,89,29.95,4.0,SSE,3.5,-,0.00,Snow,Light Snow,160,2013-02-06 00:55:00
8:19 PM,24.8,23.0,93,29.95,7.0,SSE,3.5,-,N/A,,Overcast,150,2013-02-06 01:19:00
8:25 PM,24.8,23.0,93,29.95,10.0,SSE,3.5,-,N/A,,Overcast,160,2013-02-06 01:25:00
8:29 PM,24.8,23.0,93,29.95,10.0,South,3.5,-,N/A,,Overcast,170,2013-02-06 01:29:00
8:30 PM,24.8,23.0,93,29.95,10.0,SSE,3.5,-,N/A,Snow,Light Snow,160,2013-02-06 01:30:00
8:35 PM,24.8,23.0,93,29.95,10.0,SSE,3.5,-,N/A,Snow,Light Snow,160,2013-02-06 01:35:00
8:55 PM,25.3,23.5,93,29.95,7.0,Calm,Calm,-,0.00,Snow,Light Snow,0,2013-02-06 01:55:00
9:39 PM,24.8,23.0,93,29.93,10.0,Calm,Calm,-,N/A,,Overcast,0,2013-02-06 02:39:00
9:55 PM,25.2,23.2,92,29.93,10.0,Calm,Calm,-,0.00,,Overcast,0,2013-02-06 02:55:00
10:55 PM,25.3,23.0,91,29.94,10.0,Calm,Calm,-,N/A,,Overcast,0,2013-02-06 03:55:00
11:13 PM,24.8,23.0,93,29.94,10.0,Calm,Calm,-,N/A,Snow,Light Snow,0,2013-02-06 04:13:00
11:55 PM,25.2,23.2,92,29.94,10.0,Calm,Calm,-,0.00,Snow,Light Snow,0,2013-02-06 04:55:00
11:57 PM,24.8,23.0,93,29.94,10.0,Calm,Calm,-,N/A,,Overcast,0,2013-02-06 04:57:00
11:58 PM,24.8,23.0,93,29.94,10.0,Calm,Calm,-,N/A,Snow,Light Snow,0,2013-02-06 04:58:00